Sigfox identifier Datetime Temperature Humidity SNR
00386710 2018-10-09 09:26:39 20.4 38 11.1
00386710 2018-10-09 07:17:52 20.5 39 10.9
00386710 2018-10-09 06:13:28 20.6 39 11.2
00386710 2018-10-09 05:09:02 20.5 39 11.1
00386710 2018-10-09 01:55:52 20.4 39 11
00386710 2018-10-09 00:51:29 20.4 39 10.9
00386710 2018-10-08 22:42:43 20.4 39 10.8
00386710 2018-10-08 21:38:19 20.4 39 10.9
00386710 2018-10-08 20:33:58 20.4 39 11.1
00386710 2018-10-08 19:29:32 20.4 39 11.2
00386710 2018-10-08 15:11:59 20.2 39 11.1
00386710 2018-10-08 10:54:27 20.2 39 11.4
00386710 2018-10-08 09:50:06 20.2 39 11.3
00386710 2018-10-08 08:45:40 20.2 39 11.1
00386710 2018-10-08 06:37:01 20.3 39 11.1
00386710 2018-10-08 05:32:36 20.3 39 11
00386710 2018-10-08 04:28:15 20.4 39 10.9
00386710 2018-10-08 02:19:35 20.4 39 11.1
00386710 2018-10-08 01:15:12 20.4 39 11.2
00386710 2018-10-08 00:10:50 20.4 39 11.2
00386710 2018-10-07 22:02:00 20.4 39 11.3
00386710 2018-10-07 20:57:37 20.4 40 11.6
00386710 2018-10-07 17:44:25 20.5 39 11.5
00386710 2018-10-07 16:40:03 20.5 39 11.6
00386710 2018-10-07 15:35:41 20.5 40 11.5
00386710 2018-10-07 14:31:12 20.6 39 11.4
00386710 2018-10-07 13:26:50 20.6 40 11.4
00386710 2018-10-07 12:22:31 20.6 40 11.3
00386710 2018-10-07 11:18:10 20.6 40 11.4
00386710 2018-10-07 09:09:30 20.6 40 11.3
00386710 2018-10-07 08:05:07 20.6 40 11.4
00386710 2018-10-07 07:00:47 20.6 40 11.2
00386710 2018-10-07 05:56:25 20.6 40 11.1
00386710 2018-10-07 04:52:04 20.6 40 11.1
00386710 2018-10-07 03:47:40 20.7 40 11.2
00386710 2018-10-07 02:43:14 20.8 40 11.3
00386710 2018-10-07 01:38:52 20.7 40 11.3
00386710 2018-10-07 00:34:29 20.7 40 11.4
00386710 2018-10-06 23:30:06 20.8 40 11.5
00386710 2018-10-06 22:25:48 20.8 40 11.3
00386710 2018-10-06 21:21:18 20.8 40 11.4
00386710 2018-10-06 20:16:56 20.8 40 11.4
00386710 2018-10-06 19:12:35 20.8 40 11.3
00386710 2018-10-06 18:08:10 20.8 40 12.2
00386710 2018-10-06 17:03:44 20.8 40 12.8
00386710 2018-10-06 15:59:20 20.8 40 12.9
00386710 2018-10-06 14:54:57 20.8 40 13.7
00386710 2018-10-06 13:50:34 20.8 40 14.5
00386710 2018-10-06 11:41:57 20.9 39 15.1
00386710 2018-10-06 09:33:07 20.9 39 15.8
00386710 2018-10-06 08:28:43 21 39 15.8
00386710 2018-10-06 07:24:17 21 39 16.3
00386710 2018-10-06 06:19:55 21 39 16.5
00386710 2018-10-06 05:15:28 21 39 17
00386710 2018-10-06 04:11:02 21 39 17
00386710 2018-10-06 02:02:14 21 39 17.4
00386710 2018-10-06 00:57:45 21 39 17.6
00386710 2018-10-05 23:53:15 21 39 17.6
00386710 2018-10-05 21:44:26 21 39 17.6
00386710 2018-10-05 20:40:04 21 39 17.5
00386710 2018-10-05 19:35:36 21 39 17.5
00386710 2018-10-05 18:31:13 21 39 17.4
00386710 2018-10-05 17:26:44 21 39 17.5
00386710 2018-10-05 15:17:48 20.8 38 17.6
00386710 2018-10-05 14:13:23 20.8 38 17.8
00386710 2018-10-05 13:08:54 20.8 38 18
00386710 2018-10-05 12:04:29 20.8 39 18.1
00386710 2018-10-05 11:00:02 20.6 34 18.3
00386710 2018-10-05 08:51:11 20.6 32 18.2
00386710 2018-10-05 07:46:49 20.6 32 18.2
00386710 2018-10-05 06:42:24 20.6 32 18.4
00386710 2018-10-05 05:38:01 20.6 32 18.1
00386710 2018-10-05 04:33:36 20.6 32 17.8
00386710 2018-10-05 03:29:11 20.6 32 17.5
00386710 2018-10-05 02:24:42 20.6 32 16.9
00386710 2018-10-05 01:20:15 20.7 32 17.2
00386710 2018-10-05 00:15:45 20.6 32 16.5
00386710 2018-10-04 23:11:18 20.6 32 16.5
00386710 2018-10-04 22:06:56 20.6 32 15.2
00386710 2018-10-04 21:02:30 20.6 32 15.6
00386710 2018-10-04 19:58:04 20.6 32 13.6
00386710 2018-10-04 18:53:38 20.6 32 11.6
00386710 2018-10-04 17:49:08 20.6 32 11.4
00386710 2018-10-04 16:44:41 20.6 32 11.7
00386710 2018-10-04 14:35:48 20.6 32 10.9
00386710 2018-10-04 13:31:20 20.6 32 12.1
00386710 2018-10-04 12:26:56 20.6 33 14.6
00386710 2018-10-04 11:22:25 20.6 42 0